User: anonymous   Login
Location: Oberwangen
(47.4286°N, 8.9679°E)
Time: 12:08:53
(UTC+00:00)
Language:

FALCON 9 DEB - Orbit

View from above orbital plane
View from above orbital plane
View from above satellite
View from above satellite

Ground track
Ground track

The orbit data is extracted from the following two-line orbital elements,

1 46085U 20055BL  21260.30130794  .00017349  00000-0  15931-3 0  9999
2 46085  53.0088 106.1416 0009443 182.3311 177.7661 15.67813646 68058
Epoch (UTC): 17 September 2021 07:13:53
Eccentricity: 0.0009443
inclination: 53.0088°
perigee height: 359 km
apogee height: 371 km
right ascension of ascending node: 106.1416°
argument of perigee: 182.3311°
revolutions per day: 15.67813646
mean anomaly at epoch: 177.7661°
orbit number at epoch: 6805

The dashed part of the orbit path shows where the satellite is in the earth's shadow,  

DLR